User: anonymous   Login
Location: Caltech
(34.1382°N, 118.1253°W)
Time: 08:22:37
(UTC-08:00)
Language:

PANSAT - Orbit

View from above orbital plane
View from above orbital plane
View from above satellite
View from above satellite

Ground track
Ground track

The orbit data is extracted from the following two-line orbital elements,

1 25520U 98064B   18053.22071499  .00000699  00000-0  16558-4 0  9995
2 25520  28.4549  80.9382 0004869 254.9331 105.0726 15.28724682 72580
Epoch (UTC): 22 February 2018 05:17:49
Eccentricity: 0.0004869
inclination: 28.4549°
perigee height: 476 km
apogee height: 483 km
right ascension of ascending node: 80.9382°
argument of perigee: 254.9331°
revolutions per day: 15.28724682
mean anomaly at epoch: 105.0726°
orbit number at epoch: 7258

The dashed part of the orbit path shows where the satellite is in the earth's shadow,  

DLR